FW3157 Weather Reports


Display with metric or nautical units.
time (UTC)temp
F
wind
direction
speed
MPH
gust
MPH
rain 1hr
in
rain 24hr
in
rain mn
in
humidity
%
barometer
mb
20260504001822 53 107 0.0 2.0 0.00 0.03 0.00 63 1019.0
20260504001322 53 107 1.0 2.0 0.00 0.03 0.00 63 1019.1
20260504000821 53 107 1.0 2.0 0.00 0.03 0.00 62 1019.1
20260504000540 53 107 1.0 2.0 0.00 0.03 0.00 60 1019.1
20260503235820 53 91 0.0 2.0 0.00 0.03 0.00 57 1019.1
20260503235319 53 91 0.0 2.0 0.00 0.03 0.00 57 1019.1
20260503234821 53 91 0.0 2.0 0.00 0.03 0.00 56 1019.1
20260503234314 53 91 1.0 2.0 0.00 0.03 0.00 55 1019.1
20260503233818 53 91 1.0 2.0 0.00 0.03 0.00 56 1019.1
20260503233306 53 91 1.0 4.0 0.00 0.03 0.00 57 1019.1
20260503232759 53 91 2.0 4.0 0.00 0.03 0.00 56 1019.1
20260503232254 54 105 0.0 4.0 0.00 0.03 0.00 57 1019.2
20260503231747 54 297 0.0 0.0 0.00 0.03 0.00 58 1019.2
20260503231500 54 297 0.0 0.0 0.00 0.03 0.00 58 1019.2
20260503230736 54 297 0.0 0.0 0.00 0.03 0.00 58 1019.2
20260503230231 54 297 0.0 0.0 0.00 0.03 0.00 57 1019.2
20260503230201 54 297 0.0 1.0 0.00 0.03 0.00 57 1019.2
20260503225219 55 297 0.0 3.0 0.00 0.03 0.00 56 1019.2
20260503224711 55 297 1.0 3.0 0.00 0.03 0.00 56 1019.1
20260503224425 55 99 1.0 2.0 0.00 0.03 0.00 53 1019.1
20260503223659 55 99 1.0 2.0 0.00 0.03 0.00 51 1019.1
20260503223154 55 99 0.0 1.0 0.00 0.03 0.00 50 1019.0
20260503222648 55 99 0.0 1.0 0.00 0.03 0.00 49 1019.0
20260503222406 55 99 0.0 1.0 0.00 0.03 0.00 49 1019.0
20260503221636 55 99 1.0 2.0 0.00 0.03 0.00 48 1019.0
20260503221129 55 99 1.0 3.0 0.00 0.03 0.00 48 1018.9
20260503220624 55 99 1.0 3.0 0.00 0.03 0.00 48 1018.9
20260503220117 55 128 0.0 2.0 0.00 0.03 0.00 49 1019.0
20260503215612 55 137 0.0 2.0 0.00 0.03 0.00 49 1019.0
20260503215106 55 137 0.0 2.0 0.00 0.03 0.00 49 1018.9
20260503214600 55 137 0.0 2.0 0.00 0.03 0.00 48 1019.0
20260503214054 56 137 1.0 3.0 0.00 0.03 0.00 48 1019.0
20260503213548 56 137 1.0 3.0 0.00 0.03 0.00 47 1018.9
20260503213041 56 99 2.0 4.0 0.00 0.03 0.00 46 1018.8
20260503212535 56 116 1.0 5.0 0.00 0.03 0.00 46 1018.8
20260503212029 56 117 1.0 5.0 0.00 0.03 0.00 46 1018.8
20260503212015 56 117 1.0 4.0 0.00 0.03 0.00 47 1018.8
20260503211017 56 130 1.0 4.0 0.00 0.03 0.00 48 1018.8
20260503210512 56 108 2.0 4.0 0.00 0.03 0.00 48 1018.8
20260503210225 56 109 3.0 7.0 0.00 0.03 0.00 48 1018.8
20260503205500 56 101 3.0 7.0 0.00 0.03 0.03 48 1018.8
20260503204954 56 96 3.0 7.0 0.00 0.03 0.03 47 1018.8
20260503204448 56 98 3.0 7.0 0.00 0.03 0.03 47 1018.8
20260503203942 56 94 4.0 7.0 0.00 0.03 0.03 47 1018.8
20260503203654 56 99 3.0 7.0 0.00 0.03 0.03 46 1018.7
20260503202929 57 103 2.0 5.0 0.00 0.03 0.03 46 1018.8
20260503202423 57 88 1.0 4.0 0.00 0.03 0.03 45 1018.9
20260503201917 57 113 1.0 5.0 0.00 0.03 0.03 46 1018.8
20260503201412 57 140 2.0 5.0 0.00 0.03 0.03 46 1018.8
20260503200906 57 100 2.0 5.0 0.00 0.03 0.03 47 1018.8
20260503200400 56 103 2.0 5.0 0.00 0.03 0.03 47 1018.8
20260503195854 56 108 3.0 7.0 0.00 0.03 0.03 48 1018.8
20260503195347 57 106 5.0 9.0 0.00 0.03 0.03 48 1018.8
20260503194843 57 108 5.0 9.0 0.00 0.03 0.03 47 1018.7
20260503194336 57 106 4.0 8.0 0.00 0.03 0.03 48 1018.7
20260503193829 57 103 5.0 10.0 0.00 0.03 0.03 49 1018.7
20260503193324 57 116 5.0 10.0 0.00 0.03 0.03 49 1018.7
20260503192818 57 116 6.0 10.0 0.00 0.03 0.03 48 1018.7
20260503192313 57 122 6.0 10.0 0.00 0.03 0.03 48 1018.7
20260503191806 57 100 5.0 9.0 0.00 0.03 0.03 48 1018.6
20260503191259 58 88 5.0 8.0 0.00 0.03 0.03 48 1018.6
20260503191022 58 91 4.0 8.0 0.00 0.03 0.03 49 1018.6
20260503190248 58 113 3.0 8.0 0.00 0.03 0.03 48 1018.6
20260503190010 58 72 2.0 6.0 0.00 0.03 0.03 46 1018.5
20260503185455 59 104 1.0 6.0 0.00 0.03 0.03 45 1018.6
20260503184945 59 120 2.0 5.0 0.00 0.03 0.03 45 1018.5
20260503184225 60 104 2.0 6.0 0.00 0.03 0.03 43 1018.4
20260503183717 60 145 2.0 6.0 0.00 0.03 0.03 40 1018.3
20260503183212 61 122 1.0 5.0 0.00 0.03 0.03 36 1018.3
20260503182929 61 95 1.0 4.0 0.00 0.03 0.03 35 1018.2
20260503182202 61 112 1.0 5.0 0.00 0.03 0.03 36 1018.1
20260503181702 61 112 2.0 5.0 0.00 0.03 0.03 39 1018.0
20260503181202 61 130 2.0 5.0 0.00 0.03 0.03 38 1018.0
20260503180703 61 113 3.0 6.0 0.00 0.03 0.03 36 1017.9
20260503180202 60 97 3.0 7.0 0.00 0.03 0.03 37 1017.9
20260503175702 61 120 2.0 7.0 0.00 0.03 0.03 37 1017.8
20260503175427 61 141 3.0 6.0 0.00 0.03 0.03 37 1017.8
20260503175159 61 94 3.0 6.0 0.00 0.03 0.03 37 1017.8
20260503174202 61 94 3.0 6.0 0.00 0.03 0.03 37 1017.7
20260503173702 61 94 2.0 6.0 0.00 0.03 0.03 36 1017.6
20260503173202 62 89 2.0 5.0 0.00 0.03 0.03 36 1017.6
20260503172702 62 86 2.0 6.0 0.00 0.03 0.03 36 1017.5
20260503172202 62 74 3.0 6.0 0.00 0.03 0.03 35 1017.4
20260503171702 63 81 2.0 6.0 0.00 0.03 0.03 33 1017.4
20260503171202 63 82 1.0 3.0 0.00 0.03 0.03 31 1017.3
20260503170915 64 93 1.0 4.0 0.00 0.03 0.03 31 1017.2
20260503170200 64 82 2.0 4.0 0.00 0.03 0.03 30 1017.2
20260503160139 65 73 2.0 5.0 0.00 0.03 0.03 29 1017.0
20260503150854 64 302 2.0 7.0 0.00 0.03 0.03 30 1017.1
20260503150133 64 226 2.0 7.0 0.00 0.03 0.03 31 1017.1
20260503140123 64 217 1.0 6.0 0.00 0.03 0.03 35 1017.5
20260503130615 62 241 3.0 10.0 0.00 0.03 0.03 39 1017.9
20260503130116 62 248 4.0 11.0 0.00 0.03 0.03 39 1017.9
20260503110416 59 202 4.0 8.0 0.00 0.03 0.03 45 1018.7
20260503090153 56 275 5.0 10.0 0.00 0.03 0.03 58 1019.5
20260503090128 55 290 5.0 10.0 0.00 0.03 0.03 59 1019.5
20260503081140 55 289 7.0 13.0 0.00 0.03 0.03 60 1019.5
20260503080639 55 271 7.0 12.0 0.00 0.03 0.03 60 1019.5
20260503080139 55 283 7.0 15.0 0.00 0.03 0.03 60 1019.4
20260503072627 54 274 4.0 9.0 0.00 0.03 0.03 63 1019.5
20260503072120 53 304 5.0 9.0 0.00 0.03 0.03 64 1019.6
20260503071615 53 297 4.0 8.0 0.00 0.03 0.03 64 1019.5
20260503071109 53 302 5.0 8.0 0.00 0.03 0.03 66 1019.5
20260503070603 53 295 4.0 8.0 0.00 0.03 0.03 67 1019.4
20260503055053 50 264 3.0 6.0 0.02 0.03 0.03 73 1019.0
20260503054552 50 299 3.0 6.0 0.02 0.03 0.03 74 1019.0
20260503054053 50 354 3.0 7.0 0.02 0.03 0.03 74 1019.0
20260503053553 50 300 4.0 7.0 0.02 0.03 0.03 75 1019.1
20260503053052 50 355 4.0 8.0 0.03 0.03 0.03 75 1019.1
20260503052552 50 352 4.0 8.0 0.02 0.02 0.02 76 1019.1
20260503052314 50 10 2.0 7.0 0.02 0.02 0.02 76 1019.1
20260503052032 50 326 3.0 9.0 0.02 0.02 0.02 74 1018.9
20260503051316 50 339 4.0 9.0 0.02 0.02 0.02 74 1018.8
20260503050553 50 23 2.0 6.0 0.01 0.01 0.01 75 1018.7
20260503050052 51 40 1.0 6.0 0.01 0.01 0.01 75 1018.6
20260503045552 51 90 1.0 3.0 0.01 0.01 0.01 74 1018.5
20260503045052 51 90 1.0 3.0 0.01 0.01 0.01 73 1018.4
20260503044553 51 90 1.0 3.0 0.01 0.01 0.01 71 1018.3
20260503044052 51 90 0.0 2.0 0.01 0.01 0.01 71 1018.3
20260503043752 51 32 1.0 4.0 0.00 0.00 0.00 70 1018.3
20260503043654 51 34 1.0 4.0 0.01 0.01 0.01 70 1018.3
20260503042545 52 83 1.0 4.0 0.00 0.00 0.00 72 1018.3
20260503042043 52 79 0.0 4.0 0.00 0.00 0.00 74 1018.3
20260503041804 52 84 0.0 0.0 0.00 0.00 0.00 75 1018.3
20260503041043 52 84 0.0 1.0 0.00 0.00 0.00 76 1018.2
20260503040541 52 84 0.0 1.0 0.00 0.00 0.00 76 1018.1
20260503040041 52 84 1.0 3.0 0.00 0.00 0.00 75 1018.1
20260503035800 51 84 1.0 3.0 0.00 0.00 0.00 73 1018.1
20260503035041 51 84 0.0 2.0 0.00 0.00 0.00 73 1018.0
20260503034541 51 84 0.0 1.0 0.00 0.00 0.00 73 1017.9
20260503034038 51 84 0.0 1.0 0.00 0.00 0.00 73 1017.8
20260503033536 51 84 0.0 1.0 0.00 0.00 0.00 73 1017.8
20260503033034 51 84 0.0 2.0 0.00 0.00 0.00 73 1017.7
20260503032532 51 84 1.0 3.0 0.00 0.00 0.00 73 1017.7
20260503032030 51 84 1.0 3.0 0.00 0.00 0.00 73 1017.7
20260503032016 51 108 1.0 3.0 0.00 0.00 0.00 73 1017.6
20260503031030 50 109 1.0 2.0 0.00 0.00 0.00 73 1017.6
20260503030530 50 105 1.0 2.0 0.00 0.00 0.00 73 1017.6
20260503030031 50 105 1.0 3.0 0.00 0.00 0.00 73 1017.6
20260503025528 50 105 1.0 5.0 0.00 0.00 0.00 74 1017.7
20260503025026 50 105 1.0 5.0 0.00 0.00 0.00 75 1017.9
20260503024526 50 109 2.0 4.0 0.00 0.00 0.00 76 1017.9
20260503024019 50 101 2.0 4.0 0.00 0.00 0.00 76 1018.0
20260503023513 50 93 1.0 4.0 0.00 0.00 0.00 77 1018.0
20260503023007 50 103 0.0 1.0 0.00 0.00 0.00 78 1017.9
20260503022502 50 103 0.0 2.0 0.00 0.00 0.00 77 1018.0
20260503022431 50 103 1.0 2.0 0.00 0.00 0.00 77 1017.9
20260503021713 50 103 1.0 2.0 0.00 0.00 0.00 76 1017.8
20260503020944 50 103 1.0 2.0 0.00 0.00 0.00 75 1017.9
20260503020437 50 103 1.0 3.0 0.00 0.00 0.00 74 1017.8
20260503015931 50 103 1.0 3.0 0.00 0.00 0.00 74 1017.6
20260503015425 51 103 1.0 3.0 0.00 0.00 0.00 75 1017.6
20260503015148 51 103 1.0 2.0 0.00 0.00 0.00 75 1017.7
20260503014414 50 103 1.0 4.0 0.00 0.00 0.00 75 1017.5
20260503013907 50 103 2.0 4.0 0.00 0.00 0.00 75 1017.6
20260503013402 50 103 2.0 4.0 0.00 0.00 0.00 75 1017.8
20260503012856 50 132 1.0 4.0 0.00 0.00 0.00 76 1017.8
20260503012349 50 92 0.0 2.0 0.00 0.00 0.00 76 1017.9
20260503011843 50 92 0.0 2.0 0.00 0.00 0.00 76 1017.9
20260503011338 50 92 1.0 3.0 0.00 0.00 0.00 76 1017.9
20260503010832 50 92 1.0 4.0 0.00 0.00 0.00 75 1017.9
20260503010326 51 93 1.0 4.0 0.00 0.00 0.00 74 1017.8
20260503005820 51 101 1.0 2.0 0.00 0.00 0.00 75 1017.8
20260503005757 51 101 1.0 3.0 0.00 0.00 0.00 74 1017.8
20260503004809 51 101 3.0 6.0 0.00 0.00 0.00 75 1017.9
20260503004302 51 105 3.0 6.0 0.00 0.00 0.00 76 1017.9
20260503003755 51 108 3.0 8.0 0.00 0.00 0.00 77 1017.9
20260503003250 51 94 4.0 8.0 0.00 0.00 0.00 76 1017.9
20260503002743 51 72 4.0 7.0 0.00 0.00 0.00 75 1018.0